Other Public Products
Issued by NWS Charleston, SC

Current Version | Previous Version | Graphics & Text | Print | Product List | Glossary On
Versions: 1 2 3 4 5 6 7 8 9 10 11 12 13 14 15 16 17 18 19 20 21 22 23 24 25 26 27 28 29 30 31 32 33 34 35 36 37 38 39 40 41 42 43 44 45 46 47 48 49 50
000
FPUS82 KCHS 241227
OPUCHS

TEST...KCHS/KSAV Gateway Observations...TEST
National Weather Service Charleston SC
800 AM EDT SAT JUN 24 2017

NOTE: "fair" indicates few or no clouds below 12,000 feet with no
significant weather and/or obstructions to visibility.

SCZ050-WAZ558-NCZ071-TXZ119-213-PAZ071-DCZ001-FLZ074-172-MI076-
NYZ176-178-MAZ016-IL014-TNZ027-NJZ106-GAZ044-MD014-241300-

...Gateway Observations for Charleston International...

CITY           SKY/WX    TMP DP  RH WIND       PRES   REMARKS
Chas Airport   MOSUNNY   81  73  76 SW10      29.99R
6HR MIN TEMP:  79; 6HR MAX TEMP:  81;

Seattle        CLEAR     62  49  62 E3        30.15S
6HR MIN TEMP:  61; 6HR MAX TEMP:  70;

Charlotte      PTSUNNY   75  70  84 SW7       29.96R
6HR MIN TEMP:  73; 6HR MAX TEMP:  76; 6HR PCP: TRACE;

Dallas DFW     TSTM      72  71  97 NW16      30.10R VSB 1/2
Dallas Love    CLOUDY    75  71  87 W3        30.07R THUNDER
6HR MIN TEMP:  73; 6HR MAX TEMP:  78; 6HR PCP:  0.91;

Philladelphia  PTSUNNY   73  69  87 W7        29.65R
6HR MIN TEMP:  72; 6HR MAX TEMP:  83; 6HR PCP:  0.67;

Wash National  MOSUNNY   76  68  76 W13G23    29.75R
6HR MIN TEMP:  74; 6HR MAX TEMP:  83; 6HR PCP:  0.07;

Baltimore      MOSUNNY   75  69  81 W12       29.72R
6HR MIN TEMP:  71; 6HR MAX TEMP:  81; 6HR PCP:  0.15;

Miami          MOSUNNY   84  74  71 SE12      30.04R HX  91
6HR MIN TEMP:  82; 6HR MAX TEMP:  84;

Detroit        MOSUNNY   66  56  70 W12       29.83R
6HR MIN TEMP:  63; 6HR MAX TEMP:  66;

Newark         HVY RAIN  69  69 100 NW5       29.59R FOG
6HR MIN TEMP:  69; 6HR MAX TEMP:  75; 6HR PCP:  1.39;

Laguardia      RAIN      71  71 100 NW7       29.59R FOG
6HR MIN TEMP:  71; 6HR MAX TEMP:  78; 6HR PCP:  0.92;

J F K          RAIN      72  72 100 N10       29.59R FOG
6HR MIN TEMP:  70; 6HR MAX TEMP:  75; 6HR PCP:  1.50;

Boston Logan   CLOUDY    75  71  87 S8        29.53S
6HR MIN TEMP:  71; 6HR MAX TEMP:  76;

Ft. Lauderdale PTSUNNY   82  74  76 SE9       30.04R
6HR MIN TEMP:  81; 6HR MAX TEMP:  83;

Chicago O`Hare MOSUNNY   63  55  75 W10       29.91R
6HR MIN TEMP:  61; 6HR MAX TEMP:  66;

Chicago Midway MOSUNNY   64  56  75 W10       29.91R
6HR MIN TEMP:  62; 6HR MAX TEMP:  68;

Houston Bush   CLOUDY    77  73  87 NE8       29.98S
6HR MIN TEMP:  76; 6HR MAX TEMP:  81; 6HR PCP:  0.38;

Houston Hobby  CLOUDY    80  77  90 CALM      29.97R
6HR MIN TEMP:  80; 6HR MAX TEMP:  83; 6HR PCP:  0.07;

Nashville      PTSUNNY   72  66  81 NW7       30.01R
6HR MIN TEMP:  71; 6HR MAX TEMP:  77;

Atlanta        CLOUDY    73  72  96 SW6       30.01R
6HR MIN TEMP:  72; 6HR MAX TEMP:  73;


$$

GAZ044-118-TXZ119-213-NCZ071-DCZ001-MDZ014-506-PAZ021-071-NJZ106-
NYZ176-178-MAZ106-OHZ011-021-055-MIZ076-KYZ091-ILZ014-INZ047-
MNZ060-ONZ431-241300-

...Gateway Observations for Savannah International...

CITY           SKY/WX    TMP DP  RH WIND       PRES   REMARKS
Savannah Arpt  MOSUNNY   79  72  79 S10       30.02R
6HR MIN TEMP:  76; 6HR MAX TEMP:  79;

Atlanta        CLOUDY    73  72  96 SW6       30.01R
6HR MIN TEMP:  72; 6HR MAX TEMP:  73;

Charlotte      PTSUNNY   75  70  84 SW7       29.96R
6HR MIN TEMP:  73; 6HR MAX TEMP:  76; 6HR PCP: TRACE;

Dallas DFW     TSTM      72  71  97 NW16      30.10R VSB 1/2
Houston Bush   CLOUDY    77  73  87 NE8       29.98S
6HR MIN TEMP:  76; 6HR MAX TEMP:  81; 6HR PCP:  0.38;

Wash National  MOSUNNY   76  68  76 W13G23    29.75R
6HR MIN TEMP:  74; 6HR MAX TEMP:  83; 6HR PCP:  0.07;

Wash Dulles    MOSUNNY   74  65  73 W9        29.77R
6HR MIN TEMP:  70; 6HR MAX TEMP:  76; 6HR PCP:  0.23;

Baltimore      MOSUNNY   75  69  81 W12       29.72R
6HR MIN TEMP:  71; 6HR MAX TEMP:  81; 6HR PCP:  0.15;

Philadelphia   PTSUNNY   73  69  87 W7        29.65R
6HR MIN TEMP:  72; 6HR MAX TEMP:  83; 6HR PCP:  0.67;

Newark         HVY RAIN  69  69 100 NW5       29.59R FOG
6HR MIN TEMP:  69; 6HR MAX TEMP:  75; 6HR PCP:  1.39;

Laguardia      RAIN      71  71 100 NW7       29.59R FOG
6HR MIN TEMP:  71; 6HR MAX TEMP:  78; 6HR PCP:  0.92;

J F K          RAIN      72  72 100 N10       29.59R FOG
6HR MIN TEMP:  70; 6HR MAX TEMP:  75; 6HR PCP:  1.50;

Boston         CLOUDY    75  71  87 S8        29.53S
6HR MIN TEMP:  71; 6HR MAX TEMP:  76;

Pittsburg      MOSUNNY   66  64  93 W9        29.85R
6HR MIN TEMP:  65; 6HR MAX TEMP:  68; 6HR PCP:  0.07;

Akron          MOSUNNY   65  57  75 W7        29.86R
6HR MIN TEMP:  62; 6HR MAX TEMP:  69;

Cleveland      MOSUNNY   67  57  70 SW12      29.85R
6HR MIN TEMP:  63; 6HR MAX TEMP:  70;

Cincinnati     MOSUNNY   65  62  90 W6        29.95R
6HR MIN TEMP:  61; 6HR MAX TEMP:  65;

Columbus       SUNNY     64  64 100 SW6       29.90S
Detroit        MOSUNNY   66  56  70 W12       29.83R
6HR MIN TEMP:  63; 6HR MAX TEMP:  66;

Chicago O`Hare MOSUNNY   63  55  75 W10       29.91R
6HR MIN TEMP:  61; 6HR MAX TEMP:  66;

Minneapolis    PTSUNNY   56  44  64 W13       30.00R
6HR MIN TEMP:  55; 6HR MAX TEMP:  62;

Indianapolis   MOSUNNY   64  57  78 NW8       29.96R
6HR MIN TEMP:  60; 6HR MAX TEMP:  64;

Toronto Canada MOSUNNY   66  50  55 NW12      29.71R

$$




USA.gov is the U.S. government's official web portal to all federal, state and local government web resources and services.